Skip Page Navigation
NASA JPL Caltech
NASA Logo - Jet Propulsion Laboratory + View the NASA Portal
+ Center for Near-Earth Object Studies
JPL Home Earth Solar System Stars & Galaxies Technology
JPL Solar System Dynamics
BODIES ORBITS EPHEMERIDES TOOLS PHYSICAL DATA DISCOVERY FAQ SITE MAP
IMPORTANT: The SSD Announcement email list is now available. Major changes are coming in the near future, including possible hostname and/or URL changes. To be notified of such changes, subscribe to this email list.

Please visit this page for more details.


JPL Small-Body Database Browser
Search: [ help ]  
13800 (1998 VR36)
Classification: Main-belt Asteroid          SPK-ID: 2013800
Ephemeris | Orbit Diagram | Orbital Elements | Mission Design | Physical Parameters | Discovery Circumstances | Close-Approach Data ]

[ show orbit diagram ]
Orbital Elements at Epoch 2458600.5 (2019-Apr-27.0) TDB
Reference: JPL 30 (heliocentric ecliptic J2000)
 Element Value Uncertainty (1-sigma)   Units 
e .1328029176331318 4.2319e-08  
a 2.682670325530664 1.4923e-08 au
q 2.326403879252368 1.1251e-07 au
i 12.09562477037087 4.8665e-06 deg
node 241.8429278729853 1.9649e-05 deg
peri 207.4732791640085 2.5982e-05 deg
M 193.1528713644132 1.89e-05 deg
tp 2459344.316179879613
(2021-May-09.81617988)
8.6632e-05 TDB
period 1604.905202423407
4.39
1.3391e-05
3.666e-08
d
yr
n .2243123141830434 1.8716e-09 deg/d
Q 3.038936771808959 1.6904e-08 au
  Orbit Determination Parameters
   # obs. used (total)      1537  
   data-arc span      13824 days (37.85 yr)  
   first obs. used      1982-01-23  
   last obs. used      2019-11-29  
   planetary ephem.      DE431  
   SB-pert. ephem.      SB431-N16  
   condition code      0  
   norm. resid. RMS      .45468  
   source      ORB  
   producer      Otto Matic  
   solution date      2019-Dec-13 23:38:48  

Additional Information
 Earth MOID = 1.34887 au 
 Jupiter MOID = 2.23705 au 
 T_jup = 3.331 
[ show covariance matrix ]

Ephemeris | Orbit Diagram | Orbital Elements | Mission Design | Physical Parameters | Discovery Circumstances | Close-Approach Data ]

Physical Parameter Table
Parameter Symbol Value Units Sigma Reference Notes
absolute magnitude H 12.8   n/a MPO347634  
diameter diameter 7.068 km 0.407 urn:nasa:pds:neowise_diameters_albedos::2.0[mainbelt] (http://adsabs.harvard.edu/abs/2011ApJ...741...68M)  
geometric albedo albedo 0.322   0.079 urn:nasa:pds:neowise_diameters_albedos::2.0[mainbelt] (http://adsabs.harvard.edu/abs/2011ApJ...741...68M)  

13800 (1998 VR36)          Discovered 1998-Nov-14 by LINEAR at Socorro
Reference: 20000222/Numbers.arcLast Updated: 2004-04-19

[ show close-approach data ]
Alternate Designations
 1998 VR36 = 1982 BZ7 = 1999 YV1 
Ephemeris | Orbit Diagram | Orbital Elements | Mission Design | Physical Parameters | Discovery Circumstances | Close-Approach Data ]
ABOUT SSD CREDITS/AWARDS PRIVACY/COPYRIGHT GLOSSARY LINKS
FirstGov 2020-Jan-26 05:47 UT
(server date/time)  
NASA Home Page
Site Manager:   Ryan S. Park
Webmaster  Alan B. Chamberlin